Time,TemperatureF,DewpointF,PressureIn,WindDirection,WindDirectionDegrees,WindSpeedMPH,WindSpeedGustMPH,Humidity,HourlyPrecipIn,Conditions,Clouds,dailyrainin,SoftwareType,DateUTC
2013-07-11 00:01:00,64.0,50.0,-100.00,SSE,147,9.0,11.0,60,0.00,,,-99.99,,2013-07-11 06:01:00,
2013-07-11 00:43:00,66.0,47.0,-100.00,South,174,9.0,11.0,51,0.00,,,-99.99,,2013-07-11 06:43:00,
2013-07-11 01:12:00,69.0,45.0,-100.00,SSW,195,11.0,15.0,43,0.00,,,-99.99,,2013-07-11 07:12:00,
2013-07-11 01:32:00,65.0,46.0,-100.00,SE,144,10.0,13.0,51,0.00,,,-99.99,,2013-07-11 07:32:00,
2013-07-11 01:45:00,69.0,43.0,-100.00,South,179,10.0,12.0,39,0.00,,,-99.99,,2013-07-11 07:45:00,
2013-07-11 02:02:00,69.0,43.0,-100.00,South,189,12.0,15.0,38,0.00,,,-99.99,,2013-07-11 08:02:00,
2013-07-11 02:11:00,70.0,43.0,-100.00,South,189,12.0,16.0,37,0.00,,,-99.99,,2013-07-11 08:11:00,
2013-07-11 03:43:00,69.0,41.0,-100.00,SSW,193,11.0,16.0,37,0.00,,,-99.99,,2013-07-11 09:43:00,
2013-07-11 04:12:00,67.0,41.0,-100.00,SSW,196,11.0,14.0,38,0.00,,,-99.99,,2013-07-11 10:12:00,
2013-07-11 04:42:00,68.0,40.0,-100.00,South,188,7.0,10.0,36,0.00,,,-99.99,,2013-07-11 10:42:00,
2013-07-11 05:02:00,68.0,38.0,-100.00,SSW,196,10.0,13.0,34,0.00,,,-99.99,,2013-07-11 11:02:00,
2013-07-11 05:12:00,69.0,38.0,-100.00,SSW,193,12.0,15.0,32,0.00,,,-99.99,,2013-07-11 11:12:00,
2013-07-11 06:01:00,68.0,37.0,-100.00,South,181,16.0,17.0,32,0.00,,,-99.99,,2013-07-11 12:01:00,
2013-07-11 06:43:00,65.0,38.0,-100.00,West,277,2.0,6.0,37,0.00,,,-99.99,,2013-07-11 12:43:00,
2013-07-11 08:45:00,72.0,42.0,-100.00,NE,48,2.0,5.0,33,0.00,,,-99.99,,2013-07-11 14:45:00,
2013-07-11 09:12:00,76.0,41.0,-100.00,ENE,73,1.0,4.0,29,0.00,,,-99.99,,2013-07-11 15:12:00,
2013-07-11 09:45:00,78.0,45.0,-100.00,East,85,3.0,6.0,31,0.00,,,-99.99,,2013-07-11 15:45:00,
2013-07-11 10:44:00,83.0,33.0,-100.00,SSE,165,7.0,17.0,16,0.00,,,-99.99,,2013-07-11 16:44:00,
2013-07-11 11:02:00,83.0,29.0,-100.00,WNW,288,10.0,17.0,14,0.00,,,-99.99,,2013-07-11 17:02:00,
2013-07-11 11:13:00,83.0,28.0,-100.00,West,280,11.0,18.0,13,0.00,,,-99.99,,2013-07-11 17:13:00,
2013-07-11 11:45:00,85.0,26.0,-100.00,West,280,6.0,17.0,11,0.00,,,-99.99,,2013-07-11 17:45:00,
2013-07-11 12:14:00,85.0,27.0,-100.00,SSW,206,12.0,17.0,12,0.00,,,-99.99,,2013-07-11 18:14:00,
2013-07-11 12:45:00,83.0,26.0,-100.00,WSW,254,9.0,19.0,12,0.00,,,-99.99,,2013-07-11 18:45:00,
2013-07-11 13:44:00,86.0,29.0,-100.00,West,261,7.0,14.0,12,0.00,,,-99.99,,2013-07-11 19:44:00,
2013-07-11 15:13:00,87.0,29.0,-100.00,SW,226,9.0,17.0,12,0.00,,,-99.99,,2013-07-11 21:13:00,
2013-07-11 15:44:00,87.0,29.0,-100.00,WSW,257,13.0,22.0,12,0.00,,,-99.99,,2013-07-11 21:44:00,
2013-07-11 16:45:00,85.0,30.0,-100.00,SW,227,9.0,16.0,13,0.00,,,-99.99,,2013-07-11 22:45:00,
2013-07-11 17:04:00,85.0,29.0,-100.00,West,264,8.0,20.0,13,0.00,,,-99.99,,2013-07-11 23:04:00,
2013-07-11 17:46:00,86.0,29.0,-100.00,West,268,10.0,14.0,13,0.00,,,-99.99,,2013-07-11 23:46:00,
2013-07-11 18:03:00,86.0,29.0,-100.00,West,263,11.0,16.0,13,0.00,,,-99.99,,2013-07-12 00:03:00,
2013-07-11 18:13:00,85.0,29.0,-100.00,WSW,251,12.0,17.0,13,0.00,,,-99.99,,2013-07-12 00:13:00,
2013-07-11 18:43:00,85.0,31.0,-100.00,West,272,11.0,17.0,15,0.00,,,-99.99,,2013-07-12 00:43:00,
2013-07-11 19:12:00,84.0,41.0,-100.00,SE,145,5.0,14.0,22,0.00,,,-99.99,,2013-07-12 01:12:00,
2013-07-11 19:25:00,84.0,37.0,-100.00,NNW,340,6.0,12.0,19,0.00,,,-99.99,,2013-07-12 01:25:00,
2013-07-11 19:44:00,82.0,32.0,-100.00,WNW,291,7.0,11.0,16,0.00,,,-99.99,,2013-07-12 01:44:00,
2013-07-11 20:43:00,77.0,34.0,-100.00,WSW,247,4.0,6.0,21,0.00,,,-99.99,,2013-07-12 02:43:00,
2013-07-11 21:35:00,76.0,34.0,-100.00,SW,217,10.0,11.0,22,0.00,,,-99.99,,2013-07-12 03:35:00,
2013-07-11 21:43:00,76.0,35.0,-100.00,SW,219,9.0,11.0,23,0.00,,,-99.99,,2013-07-12 03:43:00,
2013-07-11 22:43:00,75.0,35.0,-100.00,SW,227,6.0,8.0,23,0.00,,,-99.99,,2013-07-12 04:43:00,
2013-07-11 22:53:00,76.0,35.0,-100.00,SW,236,7.0,11.0,23,0.00,,,-99.99,,2013-07-12 04:53:00,
2013-07-11 23:02:00,77.0,35.0,-100.00,WSW,247,10.0,19.0,22,0.00,,,-99.99,,2013-07-12 05:02:00,
2013-07-11 23:43:00,75.0,38.0,-100.00,WSW,247,23.0,34.0,25,0.00,,,-99.99,,2013-07-12 05:43:00,